Chennai, India

4:16 AM IST on January 24, 2018 (GMT +0530)
Chennai International

Weather History for VOMM - January, 2013

Change the Weather History Date:

Tuesday, January 29, 2013

  Actual Average Record
Temperature  
Mean Temperature 78 °F -  
Max Temperature 87 °F 85 °F 91 °F (2000)
Min Temperature 68 °F 70 °F 68 °F (1999)
Cooling Degree Days 12    
Growing Degree Days 28 (Base 50)    
Moisture  
Dew Point 69 °F    
Average Humidity 75    
Maximum Humidity 100    
Minimum Humidity 47    
Precipitation  
Precipitation 0.00 in 0.04 in - ()
Sea Level Pressure  
Sea Level Pressure 29.94 in    
Wind  
Wind Speed 3 mph ()    
Max Wind Speed 12 mph    
Max Gust Speed -    
Visibility 2.3 miles    
Events Fog    
Averages and records for this station are not official NWS values.
T = Trace of Precipitation, MM = Missing Value Source: Averaged Metar Reports

Daily Weather History Graph

Daily Weather History Graph

Search for Another Location

Airport or City:

Trip Planner

Search our weather history database for the weather conditions in past years. The results will help you decide how hot, cold, wet, or windy it might be!

Date:

Astronomy

Jan. 29, 2013 Rise Set
Actual Time 6:35 AM IST 6:09 PM IST
Civil Twilight 6:13 AM IST 6:31 PM IST
Nautical Twilight 5:47 AM IST 6:56 PM IST
Astronomical Twilight 5:22 AM IST 7:22 PM IST
Moon 8:01 PM IST (1/29) 7:47 AM IST (1/29)
Length of Visible Light 12h 17m
Length of Day
11h 33m
Waning Gibbous, 96% of the Moon is Illuminated
Jan 29
Waning Gibbous
Feb 3
Last Quarter
Feb 10
New
Feb 18
First Quarter
Feb 26
Full

Hourly Weather History & Observations

Time (IST) Temp. Heat Index Dew Point Humidity Pressure Visibility Wind Dir Wind Speed Gust Speed Precip Events Conditions
12:10 AM 73.4 °F - 68.0 °F 83% 29.98 in 2.5 mi Calm Calm - N/A   Haze
12:40 AM 73.4 °F - 68.0 °F 83% 29.98 in 2.5 mi Calm Calm - N/A   Haze
1:40 AM 73.4 °F - 68.0 °F 83% 29.95 in 1.9 mi Calm Calm - N/A   Haze
2:10 AM 73.4 °F - 68.0 °F 83% 29.92 in 1.9 mi Calm Calm - N/A   Haze
2:30 AM 72 °F - 68 °F 85% 29.96 in 2 mi Calm Calm - -  
2:40 AM 75.2 °F - 68.0 °F 78% 29.92 in 1.9 mi South 4.6 mph - N/A   Haze
3:10 AM 73.4 °F - 68.0 °F 83% 29.92 in 1.6 mi Calm Calm - N/A   Haze
3:40 AM 69.8 °F - 68.0 °F 94% 29.92 in 1.2 mi Calm Calm - N/A   Partly Cloudy
4:40 AM 71.6 °F - 68.0 °F 88% 29.92 in 0.9 mi Calm Calm - N/A   Scattered Clouds
5:10 AM 71.6 °F - 69.8 °F 94% 29.92 in 0.9 mi Calm Calm - N/A   Scattered Clouds
5:30 AM 72 °F - 69 °F 87% 29.96 in 2 mi West 2.3 mph - -   Haze
5:40 AM 69.8 °F - 68.0 °F 94% 29.92 in 0.7 mi Calm Calm - N/A   Partly Cloudy
6:10 AM 69.8 °F - 68.0 °F 94% 29.95 in 0.7 mi Calm Calm - N/A   Partly Cloudy
6:40 AM 69.8 °F - 68.0 °F 94% 29.95 in 0.6 mi Calm Calm - N/A Fog Shallow Fog
7:10 AM 69.8 °F - 68.0 °F 94% 29.95 in 0.5 mi Calm Calm - N/A Fog Fog
7:40 AM 69.8 °F - 69.8 °F 100% 29.98 in 0.5 mi Calm Calm - N/A Fog Fog
8:10 AM 71.6 °F - 71.6 °F 100% 29.98 in 0.6 mi Calm Calm - N/A Fog Fog
8:30 AM 74 °F - 70 °F 82% 30.00 in 2 mi NW 2.3 mph - -   Haze
8:40 AM 75.2 °F - 71.6 °F 89% 29.98 in 0.7 mi Calm Calm - N/A   Partly Cloudy
9:10 AM 77.0 °F - 69.8 °F 78% 29.98 in 1.0 mi Calm Calm - N/A   Scattered Clouds
9:40 AM 78.8 °F - 69.8 °F 74% 29.98 in 1.2 mi West 3.5 mph - N/A   Scattered Clouds
10:40 AM 82.4 °F 86.3 °F 69.8 °F 66% 29.98 in 2.2 mi ESE 6.9 mph - N/A   Haze
11:10 AM 82.4 °F 85.4 °F 68.0 °F 62% 29.98 in 2.5 mi SE 6.9 mph - N/A   Haze
11:30 AM 83 °F - 67 °F 50% 30.00 in 6 mi NE 4.6 mph - -   Mostly Cloudy
12:10 PM 84.2 °F 86.6 °F 66.2 °F 55% 29.95 in 3.7 mi SSE 6.9 mph - N/A   Scattered Clouds
12:40 PM 84.2 °F 86.6 °F 66.2 °F 55% 29.95 in 3.7 mi ESE 9.2 mph - N/A   Scattered Clouds
1:10 PM 82.4 °F 84.6 °F 66.2 °F 58% 29.95 in 3.7 mi ESE 5.8 mph - N/A   Scattered Clouds
1:40 PM 84.2 °F 87.3 °F 68.0 °F 58% 29.92 in 3.7 mi ESE 9.2 mph - N/A   Scattered Clouds
2:10 PM 84.2 °F 87.3 °F 68.0 °F 58% 29.89 in 3.7 mi East 9.2 mph - N/A   Scattered Clouds
2:30 PM 85 °F - 68 °F 47% 29.91 in 6 mi ESE 4.6 mph - -   Scattered Clouds
2:40 PM 84.2 °F 87.3 °F 68.0 °F 58% 29.89 in 3.7 mi East 10.4 mph - N/A   Partly Cloudy
3:10 PM 82.4 °F 85.4 °F 68.0 °F 62% 29.86 in 3.7 mi ESE 11.5 mph - N/A   Partly Cloudy
3:40 PM 84.2 °F 87.3 °F 68.0 °F 58% 29.86 in 3.7 mi ESE 11.5 mph - N/A   Partly Cloudy
4:40 PM 82.4 °F 86.3 °F 69.8 °F 66% 29.89 in 3.1 mi ESE 9.2 mph - N/A   Haze
5:10 PM 80.6 °F 83.2 °F 68.0 °F 65% 29.89 in 2.5 mi East 11.5 mph - N/A   Haze
5:30 PM 81 °F - 70 °F 61% 29.92 in 2 mi ESE 4.6 mph - -   Scattered Clouds
5:40 PM 80.6 °F 83.9 °F 69.8 °F 70% 29.89 in 2.5 mi SE 9.2 mph - N/A   Haze
6:10 PM 78.8 °F - 68.0 °F 69% 29.89 in 2.5 mi ESE 9.2 mph - N/A   Haze
6:40 PM 78.8 °F - 68.0 °F 69% 29.89 in 2.5 mi ESE 6.9 mph - N/A   Haze
7:10 PM 78.8 °F - 69.8 °F 74% 29.92 in 2.5 mi East 8.1 mph - N/A   Haze
7:40 PM 78.8 °F - 69.8 °F 74% 29.92 in 2.5 mi East 9.2 mph - N/A   Haze
8:10 PM 78.8 °F - 69.8 °F 74% 29.92 in 2.5 mi East 9.2 mph - N/A   Haze
8:30 PM 78 °F - 69 °F 68% 29.96 in 2 mi ESE 3.5 mph - -   Scattered Clouds
8:40 PM 78.8 °F - 69.8 °F 74% 29.95 in 2.5 mi ESE 6.9 mph - N/A   Haze
9:10 PM 78.8 °F - 69.8 °F 74% 29.95 in 2.5 mi East 6.9 mph - N/A   Haze
9:40 PM 77.0 °F - 69.8 °F 78% 29.95 in 2.5 mi East 6.9 mph - N/A   Haze
10:10 PM 77.0 °F - 69.8 °F 78% 29.95 in 2.5 mi East 4.6 mph - N/A   Haze
10:40 PM 77.0 °F - 69.8 °F 78% 29.98 in 2.5 mi East 4.6 mph - N/A   Haze
11:10 PM 75.2 °F - 69.8 °F 83% 29.95 in 2.5 mi East 4.6 mph - N/A   Haze
11:30 PM 76 °F - 69 °F 75% 29.99 in 2 mi East 2.3 mph - -   Scattered Clouds
11:40 PM 75.2 °F - 69.8 °F 83% 29.95 in 2.5 mi East 6.9 mph - N/A   Haze